SCP
0 0 0 0 0 0 0 0 0 0 0 0 0 0 0 0 0 0 0 0 0 0 0 0 0 0 0 0 0 0 0 0 0 0 0 0 0 0 0 0 0 0 0
0 0 0 0 0 0 0 0 0 0 0 0 0 0 0 0 0 0 0 0 0 0 0 0 0 0 0 0 0 0 0 0 0 0 0 0 0 0 0 0 0 0 0
0 0 0 0 0 0 0 0 0 0 0 0 0 0 0 0 0 0 0 0 0 0 0 0 0 0 0 0 0 0 0 0 0 0 0 0 0 0 0 0 0 0 0
0 0 0 0 0 0 0 0 0 0 0 0 0 0 0 0 0 0 0 0 0 0 0 0 0 0 0 0 0 0 0 0 0 0 0 0 0 0 0 0 0 0 0
0 0 0 0 0 0 0 0 0 0 0 0 0 0 0 0 0 0 0 0 0 0 0 0 0 0 0 0 0 0 0 0 0 0 0 0 0 0 0 0 0 0 0
0 0 0 0 0 0 0 0 0 0 0 0 0 0 0 0 0 0 0 0 0 0 0 0 0 0 0 0 0 0 0 0 0 0 0 0 0 0 0 0 0 0 -0
0 0 0 0 0 0 0 0 0 0 0 0 0 0 0 0 0 0 0 0 0 0 0 0 0 0 0 0 0 0 0 0 0 0 0 0 0 0 0 0 0 0 0
0 0 0 0 0 0 0 0 0 0 0 0 0 0 0 0 0 0 0 0 0 0 0 0 0 0 0 0 0 0 0 0 0 0 0 0 0 0 0 0 0 0 0
0 0 0 0 0 0 0 0 0 0 0 0 0 0 0 0 0 0 0 0 0 0 0 0 0 0 0 0 0 0 0 0 0 0 0 0 0 0 0 0 0 0 0
0 0 0 0 0 0 0 0 0 0 0 0 0 0 0 0 0 0 0 0 0 0 0 0 0 0 0 0 0 0 0 0 0 0 0 0 0 0 0 0 0 0 0
0 0 0 0 0 0 0 0 0 0 0 0 0 0 0 0 0 0 0 0 0 0 0 0 0 0 0 0 0 0 0 0 0 0 0 0 0 0 0 0 0 0 0
0 0 0 0 0 0 0 0 0 0 0 0 0 0 0 0 0 0 0 0 0 0 0 0 0 0 0 0 0 0 0 0 0 0 0 0 0 0 0 0 0 0 0
0 0 0 0 0 0 0 0 0 0 0 0 0 0 0 0 0 0 0 0 0 0 0 0 0 0 0 0 0 0 0 0 0 0 0 0 0 0 0 0 0 0 0
0 0 0 0 0 0 0 0 0 0 0 0 0 0 0 0 0 0 0 0 0 0 0 0 0 0 0 0 0 0 0 0 0 0 0 0 0 0 0 0 0 0 0
0 0 0 0 0 0 0 0 0 0 0 0 0 0 0 0 0 0 0 0 0 0 0 0 0 0 0 0 0 0 0 0 0 0 0 0 0 0 0 0 0 0 0
0 0 0 0 0 0 0 0 0 0 0 0 0 0 0 0 0 0 0 0 0 0 0 0 0 0 0 0 0 0 0 0 0 0 0 0 0 0 0 0 0 0 0
0 0 0 0 0 0 0 0 0 0 0 0 0 0 0 0 0 0 0 0 0 0 0 0 0 0 0 0 0 0 0 0 0 0 0 0 0 0 0 0 0 0 0
0 0 0 0 0 0 0 0 0 0 0 0 0 0 0 0 0 0 0 0 0 0 0 0 0 0 0 0 0 0 0 0 0 0 0 0 0 0 0 0 0 0 0
0 0 0 0 0 0 0 0 0 0 0 0 0 0 0 0 0 0 0 0 0 0 0 0 0 0 0 0 0 0 0 0 0 0 0 0 0 0 0 0 0 0 0
0 0 0 0 0 0 0 0 0 0 0 0 0 0 0 0 0 0 0 0 0 0 0 0 0 0 0 0 0 0 0 0 0 0 0 0 0 0 0 0 0 0 0
0 0 0 0 0 0 0 0 0 0 0 0 0 0 0 0 0 0 0 0 0 0 0 0 0 0 0 0 0 0 0 0 0 0 0 0 0 0 0 0 0 0 0
0 0 0 0 0 0 0 0 0 0 0 0 0 0 0 0 0 0 0 0 0 0 0 0 0 0 0 0 0 0 0 0 0 0 0 0 0 0 0 0 0 0 0
0 0 0 0 0 0 0 0 0 0 0 0 0 0 0 0 0 0 0 0 0 0 0 0 0 0 0 0 0 0 0 0 0 0 0 0 0 0 0 0 0 0 0
0 0 0 0 0 0 0 0 0 0 0 0 0 0 0 0 0 0 0 0 0 0 0 0 0 0 0 0 0 0 0 0 0 0 0 0 0 0 0 0 0 0 0
0 0 0 0 0 0 0 0 0 0 0 0 0 0 0 0 0 0 0 0 0 0 0 0 0 0 0 0 0 0 0 0 0 0 0 0 0 0 0 0 0 0 0
0 0 0 0 0 0 0 0 0 0 0 0 0 0 0 0 0 0 0 0 0 0 0 0 0 0 0 0 0 0 0 0 0 0 0 0 0 0 0 0 0 0 0
Wind_Speed_500mb
30 31 32 34 34 35 37 39 41 43 46 49 52 54 56 61 62 63 63 64 66 67 66 67 66 67 70 69 68 67 60 55 53 89 82 79 73 64 70 65 63 64 65
25 27 29 31 32 33 35 38 41 43 46 48 49 51 52 58 61 63 65 62 65 65 65 66 66 68 71 70 67 63 64 62 57 66 81 78 70 66 62 61 57 54 54
29 32 33 33 34 36 39 40 42 43 44 46 48 51 52 55 61 62 64 64 62 60 59 64 66 62 63 71 69 62 54 53 55 59 70 68 67 65 66 62 58 53 50
36 35 34 36 38 39 38 39 39 40 42 43 45 47 48 50 55 61 62 60 58 57 55 58 61 64 58 65 60 59 48 56 61 60 60 59 64 61 62 65 66 55 54
32 33 35 37 38 38 37 36 37 39 41 43 45 47 49 50 55 59 63 61 60 59 57 57 58 59 59 50 52 52 43 39 54 58 50 51 53 62 61 62 58 60 47
37 38 38 39 38 35 35 36 38 39 41 42 41 43 44 44 47 51 56 56 56 57 57 55 56 57 57 54 49 48 33 42 50 48 44 42 50 58 58 58 53 54 51
33 33 34 31 26 25 25 28 32 37 39 41 43 45 46 48 50 53 55 56 55 55 55 55 54 55 52 53 51 54 43 38 37 34 36 41 50 51 55 50 46 42 39
34 34 29 21 18 20 26 32 37 41 45 49 51 53 54 54 54 55 55 58 57 56 54 53 52 54 49 49 55 57 51 41 41 33 29 35 40 39 43 41 40 36 18
36 31 22 18 17 21 26 32 38 42 47 51 54 56 57 56 56 56 53 57 59 60 54 56 56 52 46 47 50 56 54 42 41 35 30 33 34 35 38 36 35 40 36
34 25 19 17 19 23 28 33 39 46 51 55 57 56 56 56 56 55 45 50 55 58 62 66 56 57 48 47 47 55 48 48 48 40 34 31 30 30 31 31 34 37 40
29 23 20 19 21 26 30 37 44 50 55 57 58 57 56 53 54 49 44 46 50 53 63 65 69 52 50 44 40 43 39 45 39 38 34 31 29 28 29 31 33 35 37
26 24 22 23 26 30 34 40 46 52 58 61 63 63 60 56 53 51 48 41 41 49 56 63 61 56 45 41 38 36 37 41 39 36 35 34 34 35 35 35 34 34 29
28 26 26 28 31 34 39 44 50 54 60 63 64 64 62 60 57 50 46 43 41 46 49 53 65 61 51 45 41 41 41 40 40 40 41 40 39 39 38 37 35 33 30
32 30 31 34 36 38 42 47 53 56 60 61 61 60 63 63 62 55 55 52 50 48 51 58 63 56 45 41 39 38 38 39 41 43 44 43 42 42 42 41 41 42 42
35 34 35 39 41 43 45 50 55 54 56 55 53 54 58 60 54 48 48 49 48 48 52 57 49 47 48 45 42 41 40 40 41 42 44 45 44 44 42 42 42 43 42
36 36 39 42 43 46 50 53 50 52 49 46 43 46 48 45 44 45 43 45 44 43 53 56 52 48 48 48 48 47 46 45 44 45 46 47 47 48 48 46 44 42 44
37 38 43 46 45 47 50 54 60 48 45 44 41 40 43 43 40 40 42 42 44 53 54 52 49 48 49 49 50 50 51 47 46 46 46 46 46 47 48 47 44 44 46
40 41 45 44 45 47 51 53 52 54 55 50 41 40 39 42 43 40 36 44 45 39 43 48 49 49 50 51 50 51 51 49 47 46 45 44 44 47 49 47 46 48 50
42 44 44 42 44 48 50 50 49 49 50 50 49 39 38 36 38 36 37 43 49 49 47 46 46 46 48 49 50 50 50 50 48 47 46 46 44 46 48 47 48 47 50
45 45 43 43 45 47 48 48 46 47 47 47 45 46 46 47 43 39 39 41 43 46 46 48 47 46 46 47 49 50 51 49 48 47 48 48 46 45 48 49 49 51 52
46 43 43 44 45 47 47 44 43 43 44 44 43 42 43 46 47 47 46 43 44 47 49 52 52 50 48 49 52 54 53 52 50 50 50 49 49 49 47 48 49 49 52
44 40 41 43 44 44 42 41 41 42 43 44 42 39 40 43 45 46 46 46 45 46 47 52 54 54 52 51 52 54 55 54 52 52 53 52 52 52 50 49 48 50 51
41 39 39 41 42 42 39 39 39 40 41 42 43 45 44 44 45 46 49 50 51 51 50 51 54 55 52 52 50 52 56 55 55 55 57 58 56 55 54 52 50 52 53
38 38 39 40 40 39 38 36 37 39 41 43 44 45 48 50 53 53 54 56 58 57 56 56 56 57 58 57 55 52 53 53 55 55 56 59 59 56 54 50 50 52 55
35 36 38 37 37 36 36 36 37 39 41 44 47 49 52 54 56 57 58 59 60 61 60 59 59 59 60 59 57 56 55 54 54 54 56 57 56 52 49 48 50 54 59
34 35 35 36 35 34 35 37 38 42 45 47 49 52 55 58 58 59 60 60 60 60 60 60 59 58 58 59 57 55 54 52 52 50 51 55 55 51 48 50 53 59 67
Wind_Direction_500mb
343 345 345 342 341 341 339 339 339 340 337 337 336 335 333 329 328 328 328 329 329 329 328 327 326 322 320 319 320 320 319 317 311 303 308 314 315 318 306 308 306 301 296
345 344 348 345 346 345 346 344 342 341 337 336 336 334 334 330 328 330 329 331 331 330 328 325 326 324 321 320 323 325 322 323 321 314 310 316 319 321 317 318 319 313 310
345 348 348 344 346 345 345 342 340 340 338 339 336 338 339 333 330 331 331 335 334 332 330 328 326 328 324 323 327 325 324 321 322 321 314 317 315 314 317 318 321 323 322
343 343 341 342 344 344 344 343 342 342 343 344 345 344 342 340 335 337 338 342 340 337 331 328 328 331 327 329 333 331 330 325 317 324 322 319 321 321 329 331 327 330 330
335 337 339 342 342 341 342 347 353 355 356 355 353 352 350 347 345 341 339 344 342 339 336 332 331 331 333 335 337 335 335 326 323 326 326 324 326 329 337 336 330 330 333
334 334 335 336 338 344 352 360 2 1 359 357 353 352 349 346 341 337 335 339 339 338 336 334 331 331 333 332 333 338 318 320 321 327 329 329 326 329 333 336 331 336 341
323 325 326 329 338 348 358 1 1 359 356 353 350 347 345 342 338 333 331 331 332 333 333 330 327 328 330 333 330 332 334 326 328 330 329 327 324 329 331 335 338 340 331
320 321 325 332 346 358 360 359 356 352 349 346 343 340 337 334 332 331 329 326 327 329 330 331 327 324 328 333 327 327 334 335 333 331 326 318 323 328 332 339 338 338 335
316 318 320 329 340 347 349 347 345 344 343 341 338 334 331 329 328 327 328 322 325 327 327 329 329 322 330 329 325 323 327 328 328 326 322 315 322 330 333 334 339 344 351
309 307 306 312 325 333 336 337 339 337 337 335 332 329 327 326 326 326 329 323 320 327 324 325 327 326 326 326 323 318 327 327 328 328 326 325 327 331 334 339 343 346 349
298 291 290 298 310 320 328 329 331 331 330 328 325 325 324 323 323 323 326 320 316 321 315 321 325 329 326 322 319 314 329 315 324 324 325 326 329 335 338 341 344 344 339
287 282 283 292 305 311 318 324 326 326 325 325 325 325 325 325 325 323 323 317 319 313 315 319 326 324 324 318 315 323 317 321 320 321 325 330 334 336 337 338 336 334 335
280 276 280 292 302 307 314 319 323 325 325 325 324 323 324 325 326 329 327 325 319 319 312 318 316 322 320 320 318 317 318 318 321 324 328 332 333 332 330 326 328 326 329
280 279 285 295 301 305 312 320 322 324 324 324 323 324 324 326 328 334 335 329 323 324 324 313 313 318 318 319 317 316 318 320 322 323 322 322 323 324 328 331 330 329 326
282 283 291 299 303 307 314 318 320 323 324 323 322 318 319 319 326 324 320 321 324 322 304 308 318 319 321 321 320 320 319 320 320 319 320 321 322 323 325 328 330 329 329
281 285 293 300 304 308 311 314 318 320 321 321 319 313 313 309 316 319 318 320 317 310 309 317 319 320 320 321 321 320 320 322 322 322 321 321 322 322 322 325 326 328 328
285 289 297 300 302 306 311 316 321 322 319 321 321 317 313 313 315 317 319 317 302 305 310 314 317 319 319 319 319 319 319 319 319 318 319 320 320 319 320 324 327 328 329
283 289 294 296 301 307 314 318 317 318 321 325 327 326 319 317 316 319 323 301 307 305 308 312 315 316 315 316 316 316 317 319 320 321 321 321 322 320 322 326 327 328 328
282 291 294 298 303 308 312 314 314 315 318 321 324 327 323 323 324 324 321 319 319 318 317 314 314 314 315 315 316 316 317 319 322 322 322 321 322 320 320 322 322 324 324
286 291 292 296 301 307 311 312 313 314 316 318 323 325 326 324 333 332 329 324 320 317 317 316 317 317 315 315 315 315 316 319 321 322 322 321 321 319 319 320 322 323 325
284 286 290 297 305 309 309 308 308 312 314 316 321 323 325 324 325 325 324 321 318 316 316 315 316 316 316 314 312 312 313 316 318 317 316 318 319 319 320 319 319 320 321
281 282 287 295 301 303 303 304 308 310 313 314 318 321 321 320 319 319 320 319 318 317 316 314 315 316 317 316 315 314 315 317 318 317 316 317 317 318 319 318 318 320 321
276 280 288 295 299 300 302 305 308 309 311 314 317 319 320 318 317 317 317 316 315 315 315 313 311 312 312 312 312 312 312 314 315 316 316 317 317 318 318 318 320 322 323
276 282 288 294 297 300 302 305 307 309 312 314 315 316 316 316 316 316 315 314 312 311 311 310 309 308 308 308 307 306 305 306 307 309 311 313 314 316 315 314 317 320 323
276 281 290 295 297 299 302 306 309 309 311 312 314 315 315 314 314 314 314 314 313 312 312 311 309 308 307 305 305 304 303 304 303 303 303 304 306 311 312 312 318 319 322
278 286 293 295 296 299 304 308 310 311 312 314 314 315 315 315 316 316 315 315 314 314 313 312 312 311 309 308 309 307 306 304 301 302 304 306 310 316 318 318 322 319 321
Wind_Speed_850mb
30 31 32 34 34 35 37 39 41 43 46 49 52 54 56 61 62 63 63 64 66 67 66 67 66 67 70 69 68 67 60 55 53 89 82 79 73 64 70 65 63 64 65
25 27 29 31 32 33 35 38 41 43 46 48 49 51 52 58 61 63 65 62 65 65 65 66 66 68 71 70 67 63 64 62 57 66 81 78 70 66 62 61 57 54 54
29 32 33 33 34 36 39 40 42 43 44 46 48 51 52 55 61 62 64 64 62 60 59 64 66 62 63 71 69 62 54 53 55 59 70 68 67 65 66 62 58 53 50
36 35 34 36 38 39 38 39 39 40 42 43 45 47 48 50 55 61 62 60 58 57 55 58 61 64 58 65 60 59 48 56 61 60 60 59 64 61 62 65 66 55 54
32 33 35 37 38 38 37 36 37 39 41 43 45 47 49 50 55 59 63 61 60 59 57 57 58 59 59 50 52 52 43 39 54 58 50 51 53 62 61 62 58 60 47
37 38 38 39 38 35 35 36 38 39 41 42 41 43 44 44 47 51 56 56 56 57 57 55 56 57 57 54 49 48 33 42 50 48 44 42 50 58 58 58 53 54 51
33 33 34 31 26 25 25 28 32 37 39 41 43 45 46 48 50 53 55 56 55 55 55 55 54 55 52 53 51 54 43 38 37 34 36 41 50 51 55 50 46 42 39
34 34 29 21 18 20 26 32 37 41 45 49 51 53 54 54 54 55 55 58 57 56 54 53 52 54 49 49 55 57 51 41 41 33 29 35 40 39 43 41 40 36 18
36 31 22 18 17 21 26 32 38 42 47 51 54 56 57 56 56 56 53 57 59 60 54 56 56 52 46 47 50 56 54 42 41 35 30 33 34 35 38 36 35 40 36
34 25 19 17 19 23 28 33 39 46 51 55 57 56 56 56 56 55 45 50 55 58 62 66 56 57 48 47 47 55 48 48 48 40 34 31 30 30 31 31 34 37 40
29 23 20 19 21 26 30 37 44 50 55 57 58 57 56 53 54 49 44 46 50 53 63 65 69 52 50 44 40 43 39 45 39 38 34 31 29 28 29 31 33 35 37
26 24 22 23 26 30 34 40 46 52 58 61 63 63 60 56 53 51 48 41 41 49 56 63 61 56 45 41 38 36 37 41 39 36 35 34 34 35 35 35 34 34 29
28 26 26 28 31 34 39 44 50 54 60 63 64 64 62 60 57 50 46 43 41 46 49 53 65 61 51 45 41 41 41 40 40 40 41 40 39 39 38 37 35 33 30
32 30 31 34 36 38 42 47 53 56 60 61 61 60 63 63 62 55 55 52 50 48 51 58 63 56 45 41 39 38 38 39 41 43 44 43 42 42 42 41 41 42 42
35 34 35 39 41 43 45 50 55 54 56 55 53 54 58 60 54 48 48 49 48 48 52 57 49 47 48 45 42 41 40 40 41 42 44 45 44 44 42 42 42 43 42
36 36 39 42 43 46 50 53 50 52 49 46 43 46 48 45 44 45 43 45 44 43 53 56 52 48 48 48 48 47 46 45 44 45 46 47 47 48 48 46 44 42 44
37 38 43 46 45 47 50 54 60 48 45 44 41 40 43 43 40 40 42 42 44 53 54 52 49 48 49 49 50 50 51 47 46 46 46 46 46 47 48 47 44 44 46
40 41 45 44 45 47 51 53 52 54 55 50 41 40 39 42 43 40 36 44 45 39 43 48 49 49 50 51 50 51 51 49 47 46 45 44 44 47 49 47 46 48 50
42 44 44 42 44 48 50 50 49 49 50 50 49 39 38 36 38 36 37 43 49 49 47 46 46 46 48 49 50 50 50 50 48 47 46 46 44 46 48 47 48 47 50
45 45 43 43 45 47 48 48 46 47 47 47 45 46 46 47 43 39 39 41 43 46 46 48 47 46 46 47 49 50 51 49 48 47 48 48 46 45 48 49 49 51 52
46 43 43 44 45 47 47 44 43 43 44 44 43 42 43 46 47 47 46 43 44 47 49 52 52 50 48 49 52 54 53 52 50 50 50 49 49 49 47 48 49 49 52
44 40 41 43 44 44 42 41 41 42 43 44 42 39 40 43 45 46 46 46 45 46 47 52 54 54 52 51 52 54 55 54 52 52 53 52 52 52 50 49 48 50 51
41 39 39 41 42 42 39 39 39 40 41 42 43 45 44 44 45 46 49 50 51 51 50 51 54 55 52 52 50 52 56 55 55 55 57 58 56 55 54 52 50 52 53
38 38 39 40 40 39 38 36 37 39 41 43 44 45 48 50 53 53 54 56 58 57 56 56 56 57 58 57 55 52 53 53 55 55 56 59 59 56 54 50 50 52 55
35 36 38 37 37 36 36 36 37 39 41 44 47 49 52 54 56 57 58 59 60 61 60 59 59 59 60 59 57 56 55 54 54 54 56 57 56 52 49 48 50 54 59
34 35 35 36 35 34 35 37 38 42 45 47 49 52 55 58 58 59 60 60 60 60 60 60 59 58 58 59 57 55 54 52 52 50 51 55 55 51 48 50 53 59 67
Wind_Direction_850mb
343 345 345 342 341 341 339 339 339 340 337 337 336 335 333 329 328 328 328 329 329 329 328 327 326 322 320 319 320 320 319 317 311 303 308 314 315 318 306 308 306 301 296
345 344 348 345 346 345 346 344 342 341 337 336 336 334 334 330 328 330 329 331 331 330 328 325 326 324 321 320 323 325 322 323 321 314 310 316 319 321 317 318 319 313 310
345 348 348 344 346 345 345 342 340 340 338 339 336 338 339 333 330 331 331 335 334 332 330 328 326 328 324 323 327 325 324 321 322 321 314 317 315 314 317 318 321 323 322
343 343 341 342 344 344 344 343 342 342 343 344 345 344 342 340 335 337 338 342 340 337 331 328 328 331 327 329 333 331 330 325 317 324 322 319 321 321 329 331 327 330 330
335 337 339 342 342 341 342 347 353 355 356 355 353 352 350 347 345 341 339 344 342 339 336 332 331 331 333 335 337 335 335 326 323 326 326 324 326 329 337 336 330 330 333
334 334 335 336 338 344 352 360 2 1 359 357 353 352 349 346 341 337 335 339 339 338 336 334 331 331 333 332 333 338 318 320 321 327 329 329 326 329 333 336 331 336 341
323 325 326 329 338 348 358 1 1 359 356 353 350 347 345 342 338 333 331 331 332 333 333 330 327 328 330 333 330 332 334 326 328 330 329 327 324 329 331 335 338 340 331
320 321 325 332 346 358 360 359 356 352 349 346 343 340 337 334 332 331 329 326 327 329 330 331 327 324 328 333 327 327 334 335 333 331 326 318 323 328 332 339 338 338 335
316 318 320 329 340 347 349 347 345 344 343 341 338 334 331 329 328 327 328 322 325 327 327 329 329 322 330 329 325 323 327 328 328 326 322 315 322 330 333 334 339 344 351
309 307 306 312 325 333 336 337 339 337 337 335 332 329 327 326 326 326 329 323 320 327 324 325 327 326 326 326 323 318 327 327 328 328 326 325 327 331 334 339 343 346 349
298 291 290 298 310 320 328 329 331 331 330 328 325 325 324 323 323 323 326 320 316 321 315 321 325 329 326 322 319 314 329 315 324 324 325 326 329 335 338 341 344 344 339
287 282 283 292 305 311 318 324 326 326 325 325 325 325 325 325 325 323 323 317 319 313 315 319 326 324 324 318 315 323 317 321 320 321 325 330 334 336 337 338 336 334 335
280 276 280 292 302 307 314 319 323 325 325 325 324 323 324 325 326 329 327 325 319 319 312 318 316 322 320 320 318 317 318 318 321 324 328 332 333 332 330 326 328 326 329
280 279 285 295 301 305 312 320 322 324 324 324 323 324 324 326 328 334 335 329 323 324 324 313 313 318 318 319 317 316 318 320 322 323 322 322 323 324 328 331 330 329 326
282 283 291 299 303 307 314 318 320 323 324 323 322 318 319 319 326 324 320 321 324 322 304 308 318 319 321 321 320 320 319 320 320 319 320 321 322 323 325 328 330 329 329
281 285 293 300 304 308 311 314 318 320 321 321 319 313 313 309 316 319 318 320 317 310 309 317 319 320 320 321 321 320 320 322 322 322 321 321 322 322 322 325 326 328 328
285 289 297 300 302 306 311 316 321 322 319 321 321 317 313 313 315 317 319 317 302 305 310 314 317 319 319 319 319 319 319 319 319 318 319 320 320 319 320 324 327 328 329
283 289 294 296 301 307 314 318 317 318 321 325 327 326 319 317 316 319 323 301 307 305 308 312 315 316 315 316 316 316 317 319 320 321 321 321 322 320 322 326 327 328 328
282 291 294 298 303 308 312 314 314 315 318 321 324 327 323 323 324 324 321 319 319 318 317 314 314 314 315 315 316 316 317 319 322 322 322 321 322 320 320 322 322 324 324
286 291 292 296 301 307 311 312 313 314 316 318 323 325 326 324 333 332 329 324 320 317 317 316 317 317 315 315 315 315 316 319 321 322 322 321 321 319 319 320 322 323 325
284 286 290 297 305 309 309 308 308 312 314 316 321 323 325 324 325 325 324 321 318 316 316 315 316 316 316 314 312 312 313 316 318 317 316 318 319 319 320 319 319 320 321
281 282 287 295 301 303 303 304 308 310 313 314 318 321 321 320 319 319 320 319 318 317 316 314 315 316 317 316 315 314 315 317 318 317 316 317 317 318 319 318 318 320 321
276 280 288 295 299 300 302 305 308 309 311 314 317 319 320 318 317 317 317 316 315 315 315 313 311 312 312 312 312 312 312 314 315 316 316 317 317 318 318 318 320 322 323
276 282 288 294 297 300 302 305 307 309 312 314 315 316 316 316 316 316 315 314 312 311 311 310 309 308 308 308 307 306 305 306 307 309 311 313 314 316 315 314 317 320 323
276 281 290 295 297 299 302 306 309 309 311 312 314 315 315 314 314 314 314 314 313 312 312 311 309 308 307 305 305 304 303 304 303 303 303 304 306 311 312 312 318 319 322
278 286 293 295 296 299 304 308 310 311 312 314 314 315 315 315 316 316 315 315 314 314 313 312 312 311 309 308 309 307 306 304 301 302 304 306 310 316 318 318 322 319 321